Regional Weather Roundup
Issued by NWS

Home | Current Version | Previous Version | Graphics & Text | Print | Product List | Glossary On
Versions: 1 2 3 4 5 6 7 8 9 10 11 12 13 14 15 16 17 18 19 20 21 22 23 24 25 26 27 28 29 30 31 32 33 34 35 36 37 38 39 40 41 42 43 44 45 46 47 48 49 50
077
ASUS43 KMKX 191200
RWRWI

WISCONSIN REGIONAL WEATHER ROUNDUP
NATIONAL WEATHER SERVICE MILWAUKEE/SULLIVAN WI
600 AM CST SUN FEB 19 2017

NOTE: "FAIR" INDICATES FEW OR NO CLOUDS BELOW 12,000 FEET WITH NO
SIGNIFICANT WEATHER AND/OR OBSTRUCTIONS TO VISIBILITY.

WIZ001-002-006>008-014>016-023>028-191300-
NORTHWEST WISCONSIN

CITY           SKY/WX    TMP DP  RH WIND       PRES   REMARKS
SUPERIOR ARPT  CLOUDY    26  25  96 CALM      29.94R
ASHLAND        CLOUDY    32  27  81 CALM      29.95R
6HR MIN TEMP:  30; 6HR MAX TEMP:  42;

HAYWARD        CLEAR     27  24  89 CALM      29.94R
6HR MIN TEMP:  26; 6HR MAX TEMP:  34;

SIREN          PTCLDY    27  26  96 CALM      29.93S
CUMBERLAND     CLEAR     30  28  93 CALM      29.93R
RICE LAKE      CLEAR     29  28  98 CALM      29.95R
6HR MIN TEMP:  29; 6HR MAX TEMP:  37;

CHETEK         CLEAR     28  28 100 CALM      29.94R FOG
LADYSMITH      CLEAR     29  28  96 CALM      29.95R
6HR MIN TEMP:  29; 6HR MAX TEMP:  38;

EAU CLAIRE     NOT AVBL
MENOMONIE      CLEAR     29  28  96 CALM      29.94S
6HR MIN TEMP:  28; 6HR MAX TEMP:  36;

NEW RICHMOND   CLOUDY    29  29 100 E3        29.92F
OSCEOLA        CLEAR     29  29 100 CALM      29.95S
$$

WIZ003>005-009-010-017-018-191300-
NORTH CENTRAL WISCONSIN

CITY           SKY/WX    TMP DP  RH WIND       PRES   REMARKS
MANITOWISH WTR PTCLDY    23  23 100 CALM      29.92R
ARBOR VITAE    CLEAR     29  28  93 CALM      29.92R
WOODRUFF       CLEAR     29  28  93 CALM      29.92R
RHINELANDER    CLEAR     31  28  89 CALM      29.93R
6HR MIN TEMP:  31; 6HR MAX TEMP:  44;

EAGLE RIVER    CLEAR     28  24  84 CALM      29.91R
LAND O LAKES   CLEAR     26  24  92 CALM      29.93R
6HR MIN TEMP:  26; 6HR MAX TEMP:  42;

PHILLIPS       CLEAR     27  27 100 CALM      29.92R
6HR MIN TEMP:  26; 6HR MAX TEMP:  42;

TOMAHAWK       CLEAR     28  27  96 CALM      29.93R
MEDFORD        CLEAR     33  30  89 NE3       29.91S
MERRILL        NOT AVBL
$$

WIZ029-030-035-036-043>047-191300-
CENTRAL WISCONSIN

CITY           SKY/WX    TMP DP  RH WIND       PRES   REMARKS
WAUSAU         CLEAR     31  30  96 CALM      29.93R
6HR MIN TEMP:  31; 6HR MAX TEMP:  41;

MOSINEE        CLEAR     34  34 100 CALM      29.95R
MARSHFIELD     CLEAR     31  29  92 CALM      29.93R
6HR MIN TEMP:  30; 6HR MAX TEMP:  40;

STEVENS POINT  CLEAR     26  26 100 CALM      29.95S
WAUPACA        CLEAR     37  32  83 CALM      29.96R
6HR MIN TEMP:  36; 6HR MAX TEMP:  45;

WAUTOMA        CLEAR     29  26  89 CALM      29.96R
6HR MIN TEMP:  28; 6HR MAX TEMP:  38;

WISC RAPIDS    CLEAR     27  27 100 CALM      29.96R
6HR MIN TEMP:  27; 6HR MAX TEMP:  35;

CAMP DOUGLAS   NOT AVBL
$$

WIZ011>013-019>022-031-037>040-048>050-191300-
NORTHEAST WISCONSIN

CITY           SKY/WX    TMP DP  RH WIND       PRES   REMARKS
ANTIGO         CLEAR     26  25  96 CALM      29.93R
SHAWANO        CLOUDY    38  32  77 SW3       29.94R
6HR MIN TEMP:  38; 6HR MAX TEMP:  45;

OCONTO         MOCLDY    31  28  88 CALM      29.92R
STURGEON BAY   CLOUDY    40  29  64 W5        29.93R
6HR MIN TEMP:  40; 6HR MAX TEMP:  45;

GREEN BAY      PTCLDY    34  32  92 SW3       29.95R
6HR MIN TEMP:  34; 6HR MAX TEMP:  44;

MANITOWOC      NOT AVBL
APPLETON       PTCLDY    36  28  75 W10       29.94R WCI  28
CLINTONVILLE   PTCLDY    36  30  80 W3        29.94R
OSHKOSH        CLEAR     38  30  73 W5        29.95R WCI  34
6HR MIN TEMP:  38; 6HR MAX TEMP:  43;

$$

WIZ032>034-041-042-053>061-191300-
SOUTHWEST WISCONSIN

CITY           SKY/WX    TMP DP  RH WIND       PRES   REMARKS
LA CROSSE      CLEAR     30  28  92 SE6       29.97R WCI  24
6HR MIN TEMP:  28; 6HR MAX TEMP:  36;

SPARTA         CLEAR     23  22  99 CALM      29.98R
6HR MIN TEMP:  22; 6HR MAX TEMP:  30;

VIROQUA        CLEAR     41  32  70 CALM      29.95R
6HR MIN TEMP:  38; 6HR MAX TEMP:  46;

BOSCOBEL       CLEAR     26  23  88 CALM      29.98R
6HR MIN TEMP:  25; 6HR MAX TEMP:  30;

PRAIRIE DU CHI FOG       28  27  96 CALM      29.96S VSB 1/2
PLATTEVILLE    CLEAR     39  37  91 CALM      29.96S
$$

WIZ056-057-062-063-064-067-068-191300-
SOUTH CENTRAL WISCONSIN

CITY           SKY/WX    TMP DP  RH WIND       PRES   REMARKS
REEDSBURG      CLEAR     27  27 100 CALM      29.96S
6HR MIN TEMP:  26; 6HR MAX TEMP:  32;

BARABOO/DELLS  CLEAR     31  28  88 S3        29.96R
LONE ROCK      NOT AVBL
MINERAL POINT  CLEAR     43  32  65 E5        29.95S
MADISON        PTCLDY    29  27  92 CALM      29.97R
6HR MIN TEMP:  27; 6HR MAX TEMP:  32;

MIDDLETON      CLEAR     31  29  94 CALM      29.97S
6HR MIN TEMP:  31; 6HR MAX TEMP:  34;

WATERTOWN      CLEAR     26  26 100 CALM      29.96R
MONROE         CLEAR     46  30  53 N3        29.96R
JANESVILLE     CLEAR     30  30 100 CALM      29.97R
$$

WIZ051-052-058>065-066-070>072-191300-
SOUTHEAST WISCONSIN

CITY           SKY/WX    TMP DP  RH WIND       PRES   REMARKS
MILWAUKEE      CLEAR     44  30  57 NW8       29.96R
6HR MIN TEMP:  34; 6HR MAX TEMP:  50;

WAUKESHA       CLEAR     39  28  65 W3        29.96R
MILWAUKEE/TIMM CLEAR     37  30  75 W5        29.97R WCI  34
RACINE         CLEAR     42  30  62 NW8       29.98R
6HR MIN TEMP:  41; 6HR MAX TEMP:  47;

KENOSHA        CLEAR     41  31  67 NW3       29.97R
6HR MIN TEMP:  35; 6HR MAX TEMP:  44;

FOND DU LAC    CLEAR     32  27  81 CALM      29.96R
6HR MIN TEMP:  32; 6HR MAX TEMP:  46;

SHEBOYGAN      CLEAR     41  31  67 W7        29.95R
6HR MIN TEMP:  38; 6HR MAX TEMP:  46;

WEST BEND      CLEAR     37  32  81 CALM      29.95S
JUNEAU         CLEAR     35  30  83 CALM      29.97R
$$

LSZ147-162-191300-
LAKE SUPERIOR

STATION/POSITION TIME  TEMP    WIND        PRES    WAVE
                       AIR SEA DIR/SP/G            HT/PER
                 (UTC) (F)     (DEG/KT/KT) (MB)    (FT/S)
DEVILS ISLAND    1100   38     320/  5/  5 1014.3R
PORT WING        1140   30     130/  3/  4 1013.9S
SAXON HARBOR     1140   29     200/  4/  5 1013.9R
$$

LMZ867-665-643>646-191300-
LAKE MICHIGAN

STATION/POSITION TIME  TEMP    WIND        PRES    WAVE
                       AIR SEA DIR/SP/G            HT/PER
                 (UTC) (F)     (DEG/KT/KT) (MB)    (FT/S)
CHAMBERS ISLAND  1140   34     190/  4/  4 1012.9R
NORTHPORT PIER   1140   44     280/  6/ 10 1012.9R
SISTER BAY       1135   38      30/  2/  6   N/A
ALGOMA LAKESHORE 0940          320/  6/  9   N/A
KEWAUNEE LAKESHO 1130   42     300/  6/  8 1012.9R
SHEBOYGAN LAKESH 1100   46     280/ 11/ 12 1013.2R
PORT WASHINGTON  1140   45     290/  9/ 12 1014.9R
MILWAUKEE LAKESH 1140   47     300/ 10/ 12   N/A
KENOSHA   LAKESH 1100   45     290/  5/  6 1014.2
$$

TC  - TEMPERATURE IN CELSIUS
VSB - VISIBILITY IN STATUTE MILES
WCI - WIND CHILL INDEX
HX  - HEAT INDEX





USA.gov is the U.S. government's official web portal to all federal, state and local government web resources and services.